Showing default

SPAINSAT NG1, 62852

Orbit data source: Space-Track

SPAINSAT NG1, 62852 is a payload satellite owned by Hisdesat (ES) in HEO that was launched on Thu, 30 Jan 2025 UTC via an FALCON 9 launch vehicle from the Air Force Eastern Test Range (AFETR). Payloads include a variety of satellites, spacecraft, and rockets equipped with specific instruments for various scientific and technological missions. These include communications satellites like Starlink; space stations such as the ISS; scientific satellites like the Hubble; Earth observation satellites from companies like Planet Labs, Umbra, and HawkEye 360; GPS; miniature CubeSats for education and research; and military/defense satellites.

Loading next visibility...
SPAINSAT NG1 details
Identifier
62852, 2025-021A
Orbit
HEO
Last TLE update2 days ago
Origin
Flag of ESHisdesat (ES / SPN)
ManufacturerADST/ADSUK
MissionOperational spacecraft
Bus & MotorEUROSTAR NEO, PPS-5000
Mass6,100 kg wet, ~5,500 kg dry
Launch date (UTC)
2025-01-30 (3 weeks ago)
Launch vehicle
FALCON 9
Launch site
Air Force Eastern Test Range (AFETR)
Object type
Payload
Rocket body
Debris
Shape & HBRUnknown
Radar Cross SectionRCS unknown

Expand to show TLE details & history

TLE from 2 days ago
0 SPAINSAT NG1
1 62852U 25021A   25045.06928646 -.00000520  00000-0  00000-0 0  9998
2 62852  21.1058 343.4433 8042821 180.3344 178.6325  0.98515008   158
Epoch: 2025-02-14T01:39Z
Definitive object data (Epoch: 2025-02-14T01:39:46.35Z)
Latitude0.00012°
Longitude174.17648°
Altitude70,689.37 km
Speed1.001 km/s
True Right ascension22h 53m 49s
True Declination0° 00' 00"
Sunlit
Object was in daylight at TLE epoch
Visualization TLE readout
Latitude13.53243°
Longitude-147.5162°
Altitude32,792.451 km
Speed3.318 km/s
Apparent Right ascension01h 36m 22s
Apparent Declination6° 47' 29"
Sunlit
Object is in daylight
Visualization observer readout
Local Sidereal Time14:50:02
Azimuth24.287° NE
Elevation-40.294°
Doppler factor1
Orbital elements
Apogee altitude70,607.898 km
Perigee altitude1,972.855 km
Semi-major axis42,668.513 km
Eccentricity0.8042821
Inclination21.1058°
RAAN343.4433°
Arg. of periapsis180.3344°
True anomaly179.75037°
Mean anomaly178.6325°
Eccentric anomaly179.24207°
Mean motion0.24625 °/min
BSTARUnknown
Orbital period1461.91 mins
Loading maneuver chart data...
Loading historical data...
Loading historical data...
Loading historical data...
Loading historical data...
Loading historical data...
Loading historical data...
Loading historical data...
Other satellites on launch #21 in the year 2025 (2025-01-30 UTC)

SPAINSAT NG1 Visibility forecast

Observer location: undefined°, undefined

Span
Click to sort rows by Start time (UTC) header in descending order
Start Az.
Max El. time (UTC)
Max El. Az.
Max El.
End time (UTC)
End Az.
521 mins2025-02-16 15:31:34.422Z184.534° SSW2025-02-16 19:27:34.422Z196.635° SSW29.904°2025-02-17 00:12:34.422Z253.755° W
|